Погода Красный Чикой

Погода Красный Чикой : погода сейчас, прогноз погоды и архив. Всё, что Вы хотите узнать о погоде Красный Чикой!

Хотите узнать прогноз погоды Красный Чикой? Тогда Вам сюда: Погода Красный Чикой

Поиск расширенной информации на нашем сайте:

Полезная информация: Как сделать запоминающуюся визитку www.vizitkidarom.ru.

Другие новости

Новости СМИ2

Главная страница сайта

Новости сайта

03.07.2017

Напоминаем, что на нашем специализированном сайте Метеоцентр.Азия вы можете получить высокодетализированные автоматические прогнозы погоды по пунктам России, СНГ и мира в авиационном формате (включающие направление и скорость ветра, видимость, явления погоды, количество и форму облачности, нижнюю и верхнюю границу облачности).

Рекомендуем: Янукович історія Вінниці www.imsu-vinnycja.com.

Погода Красный Чикой - сегодня

Время (UTC), дата Ветер
(°,м/с) 
Видим.   Явления Облачность Т
(°С)
Тd
(°С)
f(%) Тe
(°С)
Pmin
(гПа)
dP
(гПа)
Po
(мм)
O2
(г/м3)
Тmin Tmax R s Состояние
почвы
09 18.09.17 310 (СЗ) 4{11}  20000 м    4/0 средняя, верхняя 
[Ac trans|Ci sp]
+12.5 -3.5 33 +12  1014.9  -0.1  695  268           
12 18.09.17 320 (СЗ) 20000 м    ясно 
+7.4 -1.3 54 +6  1017  0.5  695  273    +13.4       
15 18.09.17 090 (В) 20000 м    ясно 
+0.9 -0.3 92 +2  1019.8  0.6  696  279           
18 18.09.17 тихо ()   20000 м    ясно 
-1.3 -2.1 94 -1  1020.8  0.1  696  282           
21 18.09.17 тихо ()   20000 м    ясно 
-2.4 -2.7 98 -2  1021.9  0.7  696  283           
00 19.09.17 160 (Ю) 20000 м    3/0 верхняя 
[Ci fib]
-0.3 -1.9 89 1021.2  696  281  -3.2        влажная 
03 19.09.17 150 (ЮВ) 20000 м    4/0 верхняя 
[Ci fib]
+7.4 +0.5 62 +8  1016.8  -1.5  695  272           
06 19.09.17 010 (С) 20000 м    4/0 верхняя 
[Ci fib]
+17 +3 39 +18  1010.2  -3.2  693  262           
09 19.09.17 240 (ЮЗ) 20000 м    3/0 верхняя 
[Ci fib]
+22.7 +1 24 +23  1005.7  -2.5  691  257           
12 19.09.17 360 (С) 20000 м    3/0 верхняя 
[Ci fib]
+11.5 +5.7 68 +13  1008.8  -0.3  691  266    +22.9       
15 19.09.17 тихо ()   20000 м    4/0 средняя, верхняя 
[Ac lent|Ci sp]
+6 +4.2 88 +6  1010.9  0.3  691  272           
18 19.09.17 тихо ()   20000 м    3/0 верхняя 
[Ci fib]
+2.8 +2.3 97 +3  1011.1  -0.8  690  275           
21 19.09.17 тихо ()   20000 м    8/0 средняя, верхняя 
[Ac lent|Ci sp]
+0.5 +0.4 99 +1  1010.5  -1.3  689  277           
00 20.09.17 тихо ()   0500 м  туман  ?/?  
-0.5 -0.8 98 -1  1010.5  -0.4  689  278  -0.8        сухая 
03 20.09.17 030 (СВ) 20000 м  {туман}  8/0 верхняя 
[Ci fib]
+10.6 +4.8 67 +12  1004.2  -2.2  687  266           
06 20.09.17 290 (З) 20000 м  {туман}  8/0 верхняя 
[Ci sp]
+19.5 +4.6 37 +21  998  -3.1  685  257           
09 20.09.17 тихо ()   20000 м    8/4 1000 м верхняя 
[Cu med, cong|Ci sp]
+23.1 +5.7 32 +23  994.4  -2.4  683  253           
12 20.09.17 290 (З) 3-10{10}  20000 м    10/8 1000 м кучево-дожд., средняя 
[Cb cap|Ac As]
+18 +4.5 41 +19  997.4  1.4  684  258    +24       
15 20.09.17 340 (С) 5{10}  20000 м    10/10 1000 м кучево-дожд. 
[Cb cap]
+13.5 +5.9 60 +13  1000.5  1.5  685  262           
18 20.09.17 330 (СЗ) 3{11}  20000 м    10/10 1000 м кучево-дожд. 
[Cb cap]
+11.2 +5.8 69 +11  1000.6  -0.5  685  264           
21 20.09.17 340 (С) 20000 м    10/10 1000 м кучево-дожд. 
[Cb cap]
+9.6 +5.1 73 +11  999.4  -1.5  684  265           
00 21.09.17 320 (СЗ) 10 км  осадки на расстоянии  10/10 1000 м кучево-дожд. 
[Cb cap]
+7.7 +4.2 78 +6  998.8  -1.2  683  267  +7.7        сухая 
03 21.09.17 240 (ЮЗ) 10 км  слаб. ливневой дождь  10/3 1000 м кучево-дожд., средняя 
[Cb cap|Ac As]
+4.3 +2.1 86 +4  1000.6  0.6  683  271  +4.3         
06 21.09.17 220 (ЮЗ) 10 км  слаб. ливневой дождь  10/5 1000 м кучево-дожд., средняя 
[Cb cap|Ac As]
+3.4 +2.2 92 +1  1001.7  0.7  684  272           
09 21.09.17 270 (З) 10 км  слаб. ливневой дождь  10/5 1000 м кучево-дожд., средняя 
[Cb cap|Ac As]
+3.9 +1.9 87 +3  1003.5  1.8  685  272           
Время (UTC), дата Ветер
(°,м/с) 
Видим.   Явления Облачность Т
(°С)
Тd
(°С)
f(%) Тe
(°С)
Pmin
(гПа)
dP
(гПа)
Po
(мм)
O2
(г/м3)
Тmin Tmax R s Состояние
почвы

Для получения пояснительной информации подведите курсор к названию столбца.

ПОГОДА Красный Чикой - архив

Всё, что Вы хотите узнать о погоде Красный Чикой - удобно и подробно!

Выберите нужную дату (начиная с 1 января 2015* года) и нажмите кнопку "Найти".
Будут отображены архивные сводки погоды по пункту Красный Чикой, начиная с указанной даты.


Отображать данные в формате CSV (для использования в таблицах Excel)


Внимание! Наш архив погоды предназначен исключительно для личного некоммерческого использования в познавательных целях. Если Вам необходимы официальные справки о состоянии погоды (для производственных, юридических, коммерческих и т.п. целей), обращайтесь в органы Росгидромета.

*Примечание: данная дата относится к архиву по метеостанциям СССР (Россия, СНГ, Балтия).
Архив по метеостанциям Зарубежной Европы и Азии (кроме Китая) хранится 10 дней, по другим регионам земного шара (Китай, Африка, Америка, Австралия, Океания) - 1 день.

Красный Чикой - район местоположения метеостанции


Название, широта, долгота, высота метеостанции:
Красный Чикой 50.4°ш. 108.8°д. 771 м над ур. моря [Российская Федерация]

Дополнительная информация

В oтличие oт бoльшинства пoгoдных сайтoв мы публикуем пoдрoбную метеoинфoрмацию в детальнoм прoфессиoнальнoм фoрмате.

Характеристики температуры и влажнoсти вoздуха измеряются на высoте 2 м в тени вдали oт зданий и деревьев.
Скoрoсть ветра измеряется на высoте 10 м (на урoвне рoста челoвека скoрoсть ветра ниже в 1.5-2 раза). Если метеoстанция нахoдится в гoрoде или в лесу, тo скoрoсть ветра занижена на 2-4 м/с пo сравнению с oткрытым местoм. Скoрoсть ветра над акватoриями крупных рек и oзёр, а также на вершинах хoлмoв на 2-5 м/с выше, чем в oбычных услoвиях.
Атмoсфернoе давление в разных тoчках местнoсти мoжет значительнo oтличаться oт давления на метеoстанции, в зависимoсти oт услoвий рельефа (при пoдъёме на 10 м давление пoнижается примернo на 1 мм рт.ст.).